Overview Statistics Trail Chart Weather Telemetry Raw packets
 

This is the latest recevied weather packets stored in our database for station/object DG6YGE-6. If no packets are shown the sender has not sent any weather packets the latest 10 day(s).

<< 24 25 26 27 28 29 30 >>
Time Temp. Humidity Pressure Rain* Wind** Luminosity Snow
1788292752 15.56° C 86% 1019.1 hPa 0 mm - 0 W/m² -
1788292152 16.11° C 84% 1019 hPa 0 mm - 0 W/m² -
1788291552 16.11° C 85% 1019.1 hPa 0 mm - 0 W/m² -
1788290952 16.67° C 85% 1019 hPa 0 mm - 0 W/m² -
1788290352 16.67° C 82% 1019 hPa 0 mm - 0 W/m² -
1788289752 16.67° C 82% 1019 hPa 0 mm - 0 W/m² -
1788289152 17.22° C 83% 1018.9 hPa 0 mm - 0 W/m² -
1788288551 17.22° C 84% 1018.7 hPa 0 mm - 0 W/m² -
1788287952 17.78° C 85% 1018.6 hPa 0 mm - 0 W/m² -
1788287352 17.78° C 86% 1018.4 hPa 0 mm - 0 W/m² -
1788286752 17.78° C 86% 1018.4 hPa 0 mm - 5 W/m² -
1788286152 17.78° C 86% 1018.3 hPa 0 mm - 12 W/m² -
1788285552 17.78° C 86% 1018.2 hPa 0 mm - 19 W/m² -
1788284952 17.78° C 86% 1018.1 hPa 0 mm - 25 W/m² -
1788284351 18.33° C 86% 1018 hPa 0 mm - 28 W/m² -
1788283752 18.33° C 86% 1018 hPa 0 mm - 37 W/m² -
1788283152 18.33° C 86% 1018 hPa 0 mm - 68 W/m² -
1788282552 18.33° C 85% 1017.8 hPa 0 mm - 73 W/m² -
1788281952 18.33° C 85% 1017.8 hPa 0 mm - 137 W/m² -
1788281352 18.33° C 85% 1017.8 hPa 0 mm - 85 W/m² -
1788280752 18.33° C 85% 1017.8 hPa 0 mm - 149 W/m² -
1788280151 18.33° C 85% 1017.8 hPa 0 mm - 124 W/m² -
1788279551 18.33° C 85% 1017.7 hPa 0 mm - 174 W/m² -
1788278952 18.33° C 85% 1017.8 hPa 0 mm - 167 W/m² -
1788278352 18.33° C 85% 1017.8 hPa 0 mm - 139 W/m² -

* Rain latest hour (hover to see other rain measurements)
** Current wind speed in m/s (hover to see current wind gust speed)